Weather History for CWJT - January, 2014

Change the Weather History Date:

Thursday, January 30, 2014

  Actual Average Record
Temperature  
Mean Temperature 8 °F -  
Max Temperature 21 °F - - ()
Min Temperature -6 °F - - ()
Degree Days  
Heating Degree Days 58    
Moisture  
Dew Point 3 °F    
Average Humidity 72    
Maximum Humidity 89    
Minimum Humidity 40    
Precipitation  
Precipitation 0.08 in - - ()
Sea Level Pressure  
Sea Level Pressure 30.14 in    
Wind  
Wind Speed 2 mph ()    
Max Wind Speed 9 mph    
Max Gust Speed -    
T = Trace of Precipitation, MM = Missing Value Source: Averaged Metar Reports

Daily Weather History Graph

Daily Weather History Graph

Search for Another Location

Airport or City:

Trip Planner

Search our weather history database for the weather conditions in past years. The results will help you decide how hot, cold, wet, or windy it might be!

Date:

Astronomy

Jan. 30, 2014 Rise Set
Actual Time 7:23 AM EST 5:00 PM EST
Civil Twilight 6:50 AM EST 5:32 PM EST
Nautical Twilight 6:14 AM EST 6:08 PM EST
Astronomical Twilight 5:39 AM EST 6:43 PM EST
Moon 6:44 AM EST (1/30) 5:12 PM EST (1/30)
Length of Visible Light 10h 41m
Length of Day
9h 37m
Waning Crescent, 0% of the Moon is Illuminated
Jan 30
Waning Crescent
Jan 30
New
Feb 6
First Quarter
Feb 14
Full
Feb 22
Last Quarter

Hourly Weather History & Observations

Time (EST) Temp. Windchill Dew Point Humidity Pressure Visibility Wind Dir Wind Speed Gust Speed Precip Events Conditions
12:00 AM 0.5 °F - -2.9 °F 85% 30.12 in - Calm Calm - N/A   Unknown
1:00 AM -2 °F - -5 °F 79% 30.15 in - Calm Calm - -  
1:00 AM -1.8 °F - -5.3 °F 85% 30.15 in - Calm Calm - N/A   Unknown
2:00 AM -3.8 °F - -7.2 °F 85% 30.17 in - ENE 1.2 mph - N/A   Unknown
3:00 AM -5.8 °F - -9.4 °F 84% 30.19 in - NE 1.2 mph - N/A   Unknown
4:00 AM -2.6 °F - -5.6 °F 87% 30.22 in - Calm Calm - N/A   Unknown
5:00 AM 1.8 °F - -0.9 °F 88% 30.22 in - NE 1.2 mph - N/A   Unknown
6:00 AM 3.7 °F - 1.0 °F 89% 30.24 in - East 1.2 mph - N/A   Unknown
7:00 AM 5 °F - 2 °F 81% 30.24 in - Calm Calm - -  
7:00 AM 4.6 °F - 1.9 °F 89% 30.24 in - Calm Calm - N/A   Unknown
8:00 AM 4.3 °F - 1.4 °F 88% 30.25 in - Calm Calm - N/A   Unknown
9:00 AM 7.3 °F -4.1 °F 3.2 °F 83% 30.27 in - SSW 6.9 mph - N/A   Unknown
10:00 AM 11.1 °F 4.9 °F 4.6 °F 75% 30.27 in - South 3.5 mph - N/A   Unknown
11:00 AM 14.4 °F 5.5 °F 6.6 °F 71% 30.25 in - SSW 5.8 mph - N/A   Unknown
12:00 PM 15.6 °F 5.9 °F 10.6 °F 80% 30.24 in - SSW 6.9 mph - N/A   Unknown
1:00 PM 18 °F - 11 °F 65% 30.19 in - SSW 6.9 mph - -  
1:00 PM 17.8 °F 8.5 °F 11.3 °F 76% 30.19 in - SSW 6.9 mph - 0.08 in   Unknown
2:00 PM 20.3 °F 10.6 °F 10.4 °F 66% 30.17 in - South 8.1 mph - N/A   Unknown
3:00 PM 20.5 °F 11.7 °F 8.2 °F 59% 30.14 in - SSW 6.9 mph - N/A   Unknown
4:00 PM 19.6 °F 8.9 °F 7.7 °F 60% 30.13 in - SSW 9.2 mph - N/A   Unknown
5:00 PM 18.9 °F 12.1 °F 7.7 °F 62% 30.10 in - South 4.6 mph - N/A   Unknown
6:00 PM 19.0 °F 12.3 °F 7.3 °F 60% 30.06 in - South 4.6 mph - N/A   Unknown
7:00 PM 20 °F - 6 °F 40% 30.04 in - South 6.9 mph - -  
7:00 PM 19.9 °F 11.1 °F 7.7 °F 59% 30.04 in - South 6.9 mph - N/A   Unknown
8:00 PM 19.8 °F 14.7 °F 4.6 °F 52% 30.01 in - SSW 3.5 mph - N/A   Unknown
9:00 PM 19.6 °F - 4.5 °F 52% 29.96 in - SSE 2.3 mph - N/A   Unknown
10:00 PM 20.8 °F 16.0 °F 3.9 °F 48% 29.92 in - SSE 3.5 mph - N/A   Unknown
11:00 PM 18.0 °F - 12.0 °F 78% 29.88 in - ENE 1.2 mph - N/A   Unknown